Tracking 28799 objects as of 18-Apr-2024
HD Live streaming from Space Station
objects crossing your sky now

CZ-4 DEB

Track CZ-4 DEB now!
10-day predictions


NORAD ID: 28071
Int'l Code: 1999-057NB
Perigee: 708.5 km
Apogee: 864.1 km
Inclination: 98.6 °
Period: 100.4 minutes
Semi major axis: 7157 km
RCS: 0.0096 m2 (small)
Launch date: October 14, 1999
Source: People's Republic of China (PRC)
Launch site: Taiyaun Space Center, China (TSC)

Note: This is SATELLITE DEBRIS
Your satellite tracking list
Your tracking list is empty




NASA's NSSDC Master Catalog

Two Line Element Set (TLE):
1 28071U 99057NB  24109.02164531  .00000732  00000-0  26146-3 0  9990
2 28071  98.5751  34.1935 0108699  69.9730 350.8636 14.33760473134420
Source of the keplerian elements: AFSPC